Weather History for Alpena, MI

Change the Weather History Date:

Sunday, December 9, 2012

  Actual Average Record
Temperature  
Mean Temperature 29 °F 27 °F  
Max Temperature 33 °F 34 °F 59 °F (1946)
Min Temperature 25 °F 21 °F -4 °F (1976)
Degree Days  
Heating Degree Days 36 38  
Month to date heating degree days 264 328  
Since 1 July heating degree days 1965 2151  
Moisture  
Dew Point 25 °F    
Average Humidity 81    
Maximum Humidity 92    
Minimum Humidity 69    
Precipitation  
Precipitation 0.36 in 0.07 in 0.69 in (2009)
Month to date precipitation 1.25 0.57  
Year to date precipitation 26.30 26.98  
Snow  
Snow 4.40 in 0.70 in 8.00 in (2008)
Month to date snowfall 4.4 5.2  
Since 1 July snowfall 6.6 13.3  
Snow Depth 0.00 in    
Sea Level Pressure  
Sea Level Pressure 30.06 in    
Wind  
Wind Speed 10 mph (ENE)    
Max Wind Speed 20 mph    
Max Gust Speed 29 mph    
Visibility 4 miles    
Events Fog , Snow    
T = Trace of Precipitation, MM = Missing Value Source: NWS Daily Summary

Daily Weather History Graph

Daily Weather History Graph

Search for Another Location

Airport:

Trip Planner

Search our weather history database for the weather conditions in past years. The results will help you decide how hot, cold, wet, or windy it might be!

Date:

Astronomy

Dec. 09, 2012 Rise Set
Actual Time 8:01 AM EST 4:52 PM EST
Civil Twilight 7:27 AM EST 5:25 PM EST
Nautical Twilight 6:50 AM EST 6:03 PM EST
Astronomical Twilight 6:14 AM EST 6:38 PM EST
Moon 3:24 AM EST (12/9) 2:05 PM EST (12/9)
Length of Visible Light 9h 58m
Length of Day
8h 51m
Waning Crescent, 19% of the Moon is Illuminated
Dec 9
Waning Crescent
Dec 13
New
Dec 20
First Quarter
Dec 28
Full
Jan 4
Last Quarter

Hourly Weather History & Observations

Time (EST) Temp. Windchill Dew Point Humidity Pressure Visibility Wind Dir Wind Speed Gust Speed Precip Events Conditions
12:54 AM 28.0 °F 24.2 °F 19.0 °F 69% 30.21 in 10.0 mi NW 3.5 mph - N/A   Clear
1:54 AM 28.0 °F 24.2 °F 19.9 °F 72% 30.25 in 10.0 mi WSW 3.5 mph - N/A   Overcast
2:54 AM 28.0 °F 24.2 °F 19.0 °F 69% 30.26 in 10.0 mi West 3.5 mph - N/A   Overcast
3:54 AM 28.0 °F - 19.9 °F 72% 30.26 in 10.0 mi Calm Calm - N/A   Overcast
4:54 AM 27.0 °F - 21.0 °F 78% 30.25 in 10.0 mi Calm Calm - N/A   Overcast
5:54 AM 25.0 °F - 19.9 °F 81% 30.26 in 10.0 mi Calm Calm - N/A   Partly Cloudy
6:54 AM 27.0 °F - 21.9 °F 81% 30.25 in 10.0 mi Calm Calm - N/A   Overcast
7:54 AM 28.9 °F - 23.0 °F 78% 30.24 in 10.0 mi Calm Calm - N/A   Overcast
8:25 AM 28.4 °F - 23.0 °F 80% 30.21 in 10.0 mi Calm Calm - N/A   Overcast
8:54 AM 32.0 °F 25.6 °F 25.0 °F 75% 30.25 in 10.0 mi East 6.9 mph - N/A   Overcast
9:08 AM 32.0 °F 24.8 °F 26.6 °F 80% 30.23 in 10.0 mi East 8.1 mph - N/A   Overcast
9:54 AM 33.1 °F 24.9 °F 26.1 °F 75% 30.25 in 10.0 mi East 10.4 mph - 0.00 in   Overcast
10:05 AM 32.0 °F 22.1 °F 26.6 °F 80% 30.23 in 10.0 mi East 13.8 mph 19.6 mph 0.00 in   Overcast
10:54 AM 30.9 °F 20.2 °F 25.0 °F 79% 30.25 in 10.0 mi East 15.0 mph 21.9 mph 0.00 in   Overcast
11:54 AM 30.9 °F 20.7 °F 23.0 °F 72% 30.22 in 10.0 mi East 13.8 mph - N/A   Overcast
12:54 PM 30.0 °F 18.7 °F 23.0 °F 75% 30.19 in 10.0 mi East 16.1 mph 20.7 mph N/A   Overcast
1:54 PM 30.0 °F 18.7 °F 23.0 °F 75% 30.17 in 6.0 mi East 16.1 mph 21.9 mph 0.00 in Snow Light Snow
2:02 PM 28.4 °F 15.8 °F 23.0 °F 80% 30.12 in 1.8 mi ENE 18.4 mph 23.0 mph 0.00 in Snow Light Snow
2:37 PM 28.4 °F 16.6 °F 24.8 °F 86% 30.10 in 0.8 mi ENE 16.1 mph - 0.01 in Snow Light Snow
2:54 PM 28.0 °F 18.1 °F 24.1 °F 85% 30.12 in 0.8 mi ENE 11.5 mph - 0.01 in Snow Light Snow
3:04 PM 28.4 °F 17.5 °F 24.8 °F 86% 30.08 in 0.5 mi ENE 13.8 mph - 0.01 in Fog , Snow Snow
3:54 PM 27.0 °F 14.7 °F 24.1 °F 89% 30.07 in 0.5 mi ENE 16.1 mph 24.2 mph 0.04 in Fog , Snow Snow
4:17 PM 26.6 °F 14.3 °F 24.8 °F 93% 30.02 in 0.2 mi ENE 16.1 mph 21.9 mph 0.03 in Fog , Snow Snow
4:29 PM 26.6 °F 15.7 °F 24.8 °F 93% 30.01 in 0.5 mi ENE 12.7 mph - 0.03 in Fog , Snow Snow
4:54 PM 28.0 °F 17.5 °F 25.0 °F 88% 30.04 in 0.5 mi ENE 12.7 mph - 0.06 in Fog , Snow Snow
5:14 PM 28.4 °F 17.5 °F 26.6 °F 93% 29.99 in 0.2 mi ENE 13.8 mph 20.7 mph 0.03 in Fog , Snow Heavy Snow
5:28 PM 28.4 °F 17.0 °F 26.6 °F 93% 29.97 in 0.2 mi ENE 15.0 mph - 0.05 in Fog , Snow Heavy Snow
5:37 PM 28.4 °F 18.5 °F 26.6 °F 93% 29.97 in 0.5 mi ENE 11.5 mph - 0.06 in Fog , Snow Snow
5:54 PM 28.0 °F 18.1 °F 26.1 °F 92% 30.00 in 1.0 mi ENE 11.5 mph 21.9 mph 0.11 in Snow Light Snow
6:25 PM 28.4 °F 17.0 °F 26.6 °F 93% 29.94 in 1.0 mi ENE 15.0 mph - 0.01 in Snow Light Snow
6:39 PM 28.4 °F 17.5 °F 26.6 °F 93% 29.95 in 0.8 mi NE 13.8 mph - 0.01 in Snow Light Snow
6:54 PM 28.9 °F 18.6 °F 26.1 °F 89% 29.97 in 0.8 mi ENE 12.7 mph 23.0 mph 0.03 in Snow Light Snow
7:24 PM 28.4 °F 17.0 °F 26.6 °F 93% 29.91 in 1.0 mi ENE 15.0 mph 24.2 mph 0.02 in Snow Light Snow
7:49 PM 28.4 °F 17.0 °F 26.6 °F 93% 29.89 in 0.8 mi ENE 15.0 mph - 0.03 in Snow Light Snow
7:54 PM 28.9 °F 15.8 °F 26.1 °F 89% 29.92 in 0.8 mi ENE 20.7 mph 25.3 mph 0.04 in Snow Light Snow
8:09 PM 28.4 °F 17.0 °F 26.6 °F 93% 29.87 in 1.0 mi ENE 15.0 mph 23.0 mph 0.00 in Snow Light Snow
8:24 PM 28.4 °F 17.0 °F 26.6 °F 93% 29.86 in 2.0 mi ENE 15.0 mph 24.2 mph 0.01 in Snow Light Snow
8:31 PM 28.4 °F 15.8 °F 26.6 °F 93% 29.85 in 2.0 mi ENE 18.4 mph 24.2 mph 0.01 in Snow Light Snow
8:36 PM 28.4 °F 17.0 °F 26.6 °F 93% 29.85 in 1.8 mi ENE 15.0 mph 24.2 mph 0.01 in Snow Light Snow
8:54 PM 28.9 °F 18.6 °F 26.1 °F 89% 29.86 in 2.0 mi ENE 12.7 mph 23.0 mph 0.01 in Snow Light Snow
9:03 PM 28.4 °F 18.0 °F 26.6 °F 93% 29.82 in 1.5 mi ENE 12.7 mph 20.7 mph 0.00 in Snow Light Snow
9:42 PM 30.2 °F 19.8 °F 26.6 °F 86% 29.79 in 1.2 mi ENE 13.8 mph - 0.01 in Snow Light Snow
9:54 PM 30.0 °F 20.0 °F 27.0 °F 88% 29.81 in 1.2 mi ENE 12.7 mph - 0.01 in Snow Light Snow
10:54 PM 30.0 °F 21.7 °F 28.0 °F 92% 29.79 in 1.2 mi ENE 9.2 mph - 0.03 in Snow Light Snow
11:54 PM 30.9 °F 22.2 °F 28.9 °F 92% 29.73 in 1.2 mi NE 10.4 mph - 0.02 in Snow Light Snow